Regional Weather Roundup
Issued by NWS

Home | Current Version | Previous Version | Text Only | Print | Product List | Glossary On
Versions: 1 2 3 4 5 6 7 8 9 10 11 12 13 14 15 16 17 18 19 20 21 22 23 24 25 26 27 28 29 30 31 32 33 34 35 36 37 38 39 40 41 42 43 44 45 46 47 48 49 50
000
ASUS43 KLOT 030100
RWRIL

ILLINOIS REGIONAL WEATHER ROUNDUP
NATIONAL WEATHER SERVICE CHICAGO/ROMEOVILLE IL
800 PM CDT WED SEP 02 2015

NOTE: "FAIR" INDICATES FEW OR NO CLOUDS BELOW 12,000 FEET WITH NO
SIGNIFICANT WEATHER AND/OR OBSTRUCTIONS TO VISIBILITY.

* THESE STATIONS ARE NOT UNDER NWS QUALITY CONTROL. THEY ALSO MAY NOT
  REPORT WEATHER SUCH AS PRECIPITATION OR FOG.

ILZ001-002-007-009-015-016-024-030200-
NORTHWEST ILLINOIS

CITY           SKY/WX    TMP DP  RH WIND       PRES   REMARKS
MOLINE         MOCLDY    80  69  69 CALM      29.93F HX  83
STERLING*      CLEAR     81  72  74 CALM      29.93S HX  84
$$

ILZ003-004-008-010-011-017-018-030200-
NORTH CENTRAL ILLINOIS

CITY           SKY/WX    TMP DP  RH WIND       PRES   REMARKS
ROCKFORD       PTCLDY    78  70  76 S6        29.95F HX  80
FREEPORT*      CLOUDY    75  69  82 S6        29.96S
$$

ILZ005-006-012>014-019>023-030200-
NORTHEAST ILLINOIS

CITY           SKY/WX    TMP DP  RH WIND       PRES   REMARKS
CHICAGO-OHARE  MOCLDY    83  66  56 SW5       29.95F HX  85
CHICAGO-MIDWAY MOCLDY    85  67  54 SW6       29.96R HX  87
AURORA         MOCLDY    78  70  76 S5        29.97S HX  80
LANSING*       PTCLDY    78  69  75 S6        29.97S
WAUKEGAN       CLOUDY    76  70  82 S6        29.94S
DUPAGE AIRPORT MOCLDY    78  69  73 S3        29.96S HX  80
WHEELING       MOCLDY    83  66  56 S6        29.96S HX  85
NORTHERLY ISL    N/A     84  63  49 W2          N/A  HX  85
$$

LMZ740>746-030200-
SOUTHERN LAKE MICHIGAN

STATION/POSITION SKY/WX   TEMP    WIND        PRES    VSBY  WAVE
                          AIR SEA DIR/SP/G                  HT/PER
                          (F)     (DEG/KT/KT) (MB)    (MI)  (FT/S)
SOUTHERN BUOY              74 72  160/  6/  8 1013.5F         0
WILMETTE HARBOR            74 62  300/  2/  4   N/A           0
HARRISON CRIB              85     240/  8/ 10   N/A
BURNHAM HARBOR             85     220/  3/ 10   N/A
CALUMET HARBOR             86     210/  4/  6   N/A
BURNS HARBOR               83     230/  6/  9 1014.9S
MICHIGAN CITY              79      70/  3/  4   N/A
MICHIGAN CITY 6N           79 76  100/  6/  8   N/A           0
ST. JOSEPH                 78 74  250/ 12/ 17   N/A           1
$$

ILZ025>027-034>036-040-047-049-050-058-095>099-030200-
WEST-CENTRAL ILLINOIS

CITY           SKY/WX    TMP DP  RH WIND       PRES   REMARKS
QUINCY         CLEAR     80  69  69 S5        29.97S HX  83
$$

ILZ028>032-037-038-041>044-048-051>054-059>061-030200-
CENTRAL ILLINOIS

CITY           SKY/WX    TMP DP  RH WIND       PRES   REMARKS
DECATUR        PTCLDY    82  69  64 S8        30.00R HX  85
PEORIA         CLEAR     82  69  64 SW5       29.97R HX  85
SPRINGFIELD    CLEAR     82  67  60 SW3       29.98S HX  84
TAYLORVILLE    NOT AVBL
$$

ILZ033-039-045-046-055>057-062-063-030200-
EAST-CENTRAL ILLINOIS

CITY           SKY/WX    TMP DP  RH WIND       PRES   REMARKS
CHAMPAIGN      MOCLDY    78  70  76 S6        30.00S HX  80
MATTOON        HAZE      80  68  66 SW5       30.00R VSB 1/2 HX  83
$$

ILZ079-100>102-030200-
SOUTHWEST ILLINOIS

CITY           SKY/WX    TMP DP  RH WIND       PRES   REMARKS
ALTON          PTCLDY    79  72  78 CALM      29.99R HX  82
BELLEVILLE     MOCLDY    82  74  77 VRB2      29.98R HX  87
CAHOKIA*       MOCLDY    84  71  65 S3        29.98R HX  89
SPARTA*        MOCLDY    80  71  73 SE3       30.01S HX  83
$$

ILZ064>066-069>071-074>076-080>082-084>086-088>090-092>094-030200-
SOUTH-CENTRAL ILLINOIS

CITY           SKY/WX    TMP DP  RH WIND       PRES   REMARKS
CARBONDALE     CLEAR     77  70  79 CALM      30.00R
MT. VERNON     PTCLDY    75  66  73 CALM      30.01S
SALEM*         PTCLDY    77  71  81 CALM      30.00S
$$

ILZ067-068-072-073-078-083-087-091-030200-
SOUTHEAST ILLINOIS

CITY           SKY/WX    TMP DP  RH WIND       PRES   REMARKS
LAWRENCEVILLE  PTCLDY    79  71  76 S5        30.01R HX  82
FLORA*         CLEAR     77  68  73 W3        30.01R
ROBINSON*      PTCLDY    75  71  89 CALM      30.01S
$$

ABBREVIATIONS USED IN REMARKS
   TC - TEMPERATURE IN CELSIUS
  WCI - WIND CHILL INDEX
   HX - HEAT INDEX
  VSB - VISIBILITY
$$



USA.gov is the U.S. government's official web portal to all federal, state and local government web resources and services.